Tracking 32412 objects as of 7-Dec-2025
HD Live streaming from Space Station
objects crossing your sky now

APRIZESAT 5

Track APRIZESAT 5 now!
10-day predictions
APRIZESAT 5 is classified as:


NORAD ID: 37792
Int'l Code: 2011-044E
Perigee: 598.8 km
Apogee: 670.7 km
Inclination: 98.2 °
Period: 97.3 minutes
Semi major axis: 7005 km
RCS: 0.107 m2 (medium)
Launch date: August 17, 2011
Source: United States (US)
Launch site: Orenburg, Russia (OREN)

Uplink (MHz):
Downlink (MHz):
Beacon (MHz):
Mode:
Call sign:
Status: Unknown

Your satellite tracking list
Your tracking list is empty




NASA's NSSDC Master Catalog

Two Line Element Set (TLE):
1 37792U 11044E   25340.56764238  .00002642  00000-0  34474-3 0  9992
2 37792  98.2354 263.3498 0051284 262.9303  96.6075 14.80546468770284
Source of the keplerian elements: AFSPC